ATLAS 5 CENTAUR R/B, 40947

Orbit data source: Space-Track

ATLAS 5 CENTAUR R/B, 40947 is space debris in HEO originally from a launch on Fri, 02 Oct 2015 UTC launched from the Air Force Eastern Test Range (AFETR). Debris objects in space refer to the collection of defunct objects orbiting the Earth. Examples of debris include non-operational satellites, rocket bodies, and fragments generated from explosions, collisions, or faulty payload assembly.

Loading next visibility...
ATLAS 5 CENTAUR R/B details
Identifier
40947, 2015-056B
Orbit
HEO
Last TLE update19 hours ago
Origin
Flag of USULA (US)
ManufacturerULA Decatur
MissionSpacecraft
Bus & MotorCENTAUR SEC, RL10C-1
Mass~2,020 kg wet, 2,020 kg dry
Launch date (UTC)
2015-10-02 (9 years ago)
Launch vehicleUnknown
Launch site
Air Force Eastern Test Range (AFETR)
Object type
Payload
Rocket body
Debris
Shape & HBRCyl + 1 Nozzle, 11.7 m
Radar Cross Section32.260 m², Large (>1 m²)

Expand to show TLE details & history

TLE from 19 hours ago
0 ATLAS 5 CENTAUR R/B
1 40947U 15056B   24360.74617153  .00000125  00000-0  00000-0 0  9998
2 40947  25.4615 170.4194 5878288 335.2410   5.2389  2.04877061 69118
Epoch: 2024-12-25T17:54Z
Definitive object data (Epoch: 2024-12-25T17:54:29.22Z)
Latitude-0.0001°
Longitude167.09011°
Altitude4,807.041 km
Speed7.487 km/s
True Right ascension11h 21m 47s
True Declination0° 00' 00"
Sunlit
Object was in daylight at TLE epoch
Visualization TLE readout
Latitude1.86388°
Longitude-16.95701°
Altitude31,815.665 km
Speed2.377 km/s
Apparent Right ascension23h 15m 45s
Apparent Declination-3° 47' 20"
Sunlit
Object is in daylight
Visualization observer readout
Local Sidereal Time12:36:33
Azimuth32.054° NE
Elevation-49.521°
Doppler factor1
Orbital elements
Apogee altitude35,204.782 km
Perigee altitude4,416.025 km
Semi-major axis26,188.541 km
Eccentricity0.5878288
Inclination25.4615°
RAAN170.4194°
Arg. of periapsis335.241°
True anomaly24.39027°
Mean anomaly5.2389°
Eccentric anomaly12.56713°
Mean motion0.51213 °/min
BSTARUnknown
Orbital period702.95 mins
Loading maneuver chart data...
Loading historical data...
Loading historical data...
Loading historical data...
Loading historical data...
Loading historical data...
Loading historical data...
Loading historical data...
Other satellites on launch #56 in the year 2015 (2015-10-02 UTC)

ATLAS 5 CENTAUR R/B Visibility forecast

Observer location: undefined°, undefined

Span
Click to sort rows by Start time (UTC) header in descending order
Start Az.
Max El. time (UTC)
Max El. Az.
Max El.
End time (UTC)
End Az.
609 mins2024-12-26 17:38:54.505Z255.72° W2024-12-26 19:03:54.505Z186.577° SSW43.231°2024-12-27 03:47:54.505Z186.121° SSW
|